| time (UTC) | temp C | wind direction | speed KPH | gust KPH | rain 1hr cm | rain 24hr cm | rain mn cm | humidity % | barometer mb |
| 20260508043055 | 6 | 141 | 6.4 | 0.0 | 0.00 | 0.00 | 0.00 | 93 | 1011.5 |
| 20260508041532 | 6 | 155 | 8.0 | 0.0 | 0.00 | 0.00 | 0.00 | 92 | 1011.5 |
| 20260508040103 | 6 | 163 | 6.4 | 0.0 | 0.00 | 0.00 | 0.00 | 92 | 1011.5 |
| 20260508034624 | 6 | 160 | 4.8 | 0.0 | 0.00 | 0.00 | 0.00 | 92 | 1011.6 |
| 20260508033034 | 5 | 155 | 4.8 | 0.0 | 0.00 | 0.00 | 0.00 | 92 | 1011.5 |
| 20260508031522 | 5 | 147 | 8.0 | 0.0 | 0.00 | 0.00 | 0.00 | 92 | 1011.5 |
| 20260508030027 | 5 | 148 | 4.8 | 0.0 | 0.00 | 0.00 | 0.00 | 91 | 1011.4 |
| 20260508024532 | 5 | 148 | 4.8 | 0.0 | 0.00 | 0.00 | 0.00 | 91 | 1011.5 |
| 20260508023046 | 5 | 139 | 6.4 | 0.0 | 0.00 | 0.00 | 0.00 | 91 | 1011.3 |
| 20260508021622 | 5 | 139 | 6.4 | 0.0 | 0.00 | 0.00 | 0.00 | 91 | 1011.3 |
| 20260508020033 | 5 | 139 | 6.4 | 0.0 | 0.00 | 0.00 | 0.00 | 90 | 1011.3 |
| 20260508014547 | 6 | 142 | 6.4 | 0.0 | 0.00 | 0.00 | 0.00 | 91 | 1011.2 |
| 20260508013143 | 6 | 138 | 6.4 | 0.0 | 0.00 | 0.00 | 0.00 | 90 | 1011.1 |
| 20260508011511 | 5 | 141 | 6.4 | 0.0 | 0.00 | 0.00 | 0.00 | 90 | 1011.2 |
| 20260508010057 | 6 | 142 | 6.4 | 0.0 | 0.00 | 0.00 | 0.00 | 89 | 1011.4 |
| 20260508004528 | 6 | 136 | 6.4 | 0.0 | 0.00 | 0.00 | 0.00 | 89 | 1011.4 |
| 20260508003028 | 6 | 136 | 4.8 | 0.0 | 0.00 | 0.00 | 0.00 | 88 | 1011.5 |
| 20260508001553 | 6 | 140 | 4.8 | 0.0 | 0.00 | 0.00 | 0.00 | 87 | 1011.6 |
| 20260508000043 | 7 | 137 | 4.8 | 0.0 | 0.00 | 0.00 | 0.00 | 86 | 1011.6 |
| 20260507234628 | 7 | 139 | 8.0 | 0.0 | 0.00 | 0.00 | 0.00 | 86 | 1011.6 |
| 20260507233148 | 7 | 143 | 9.7 | 0.0 | 0.00 | 0.00 | 0.00 | 85 | 1011.6 |
| 20260507231550 | 7 | 155 | 9.7 | 0.0 | 0.00 | 0.00 | 0.00 | 85 | 1011.6 |
| 20260507230145 | 7 | 143 | 11.3 | 0.0 | 0.00 | 0.00 | 0.00 | 85 | 1011.8 |
| 20260507224510 | 7 | 148 | 9.7 | 0.0 | 0.00 | 0.00 | 0.03 | 84 | 1012.0 |
| 20260507223211 | 8 | 143 | 9.7 | 0.0 | 0.00 | 0.00 | 0.03 | 83 | 1011.9 |
| 20260507221632 | 8 | 168 | 9.7 | 0.0 | 0.00 | 0.00 | 0.03 | 82 | 1012.0 |
| 20260507220141 | 8 | 157 | 12.9 | 0.0 | 0.00 | 0.00 | 0.03 | 81 | 1011.6 |
| 20260507214517 | 8 | 148 | 12.9 | 0.0 | 0.00 | 0.00 | 0.03 | 80 | 1011.6 |
| 20260507213046 | 8 | 153 | 9.7 | 0.0 | 0.00 | 0.00 | 0.03 | 80 | 1011.7 |
| 20260507211639 | 8 | 156 | 9.7 | 0.0 | 0.00 | 0.00 | 0.03 | 79 | 1011.6 |
| 20260507210006 | 9 | 148 | 9.7 | 0.0 | 0.00 | 0.00 | 0.03 | 78 | 1011.5 |
| 20260507204650 | 9 | 147 | 9.7 | 0.0 | 0.00 | 0.00 | 0.03 | 78 | 1011.5 |
| 20260507203008 | 9 | 135 | 9.7 | 0.0 | 0.00 | 0.00 | 0.03 | 79 | 1011.3 |
| 20260507201552 | 10 | 139 | 9.7 | 0.0 | 0.00 | 0.00 | 0.03 | 78 | 1011.5 |
| 20260507200054 | 10 | 144 | 11.3 | 0.0 | 0.00 | 0.00 | 0.03 | 76 | 1011.3 |
| 20260507194559 | 10 | 124 | 11.3 | 0.0 | 0.00 | 0.00 | 0.03 | 75 | 1011.0 |
| 20260507193134 | 11 | 131 | 11.3 | 0.0 | 0.00 | 0.00 | 0.03 | 73 | 1011.0 |
| 20260507191638 | 11 | 105 | 11.3 | 0.0 | 0.00 | 0.00 | 0.03 | 71 | 1010.8 |
| 20260507190127 | 12 | 122 | 11.3 | 0.0 | 0.00 | 0.00 | 0.03 | 69 | 1010.9 |
| 20260507184625 | 12 | 133 | 11.3 | 0.0 | 0.00 | 0.00 | 0.03 | 66 | 1010.8 |
| 20260507183139 | 12 | 131 | 14.5 | 0.0 | 0.00 | 0.00 | 0.03 | 64 | 1010.6 |
| 20260507181509 | 13 | 140 | 12.9 | 0.0 | 0.00 | 0.00 | 0.03 | 62 | 1010.6 |
| 20260507180103 | 13 | 141 | 16.1 | 0.0 | 0.00 | 0.00 | 0.03 | 60 | 1010.7 |
| 20260507174556 | 13 | 152 | 12.9 | 0.0 | 0.00 | 0.00 | 0.03 | 60 | 1010.8 |
| 20260507173015 | 13 | 139 | 12.9 | 0.0 | 0.00 | 0.00 | 0.03 | 61 | 1010.6 |
| 20260507171529 | 13 | 124 | 12.9 | 0.0 | 0.00 | 0.00 | 0.03 | 59 | 1010.8 |
| 20260507170051 | 13 | 125 | 12.9 | 0.0 | 0.00 | 0.00 | 0.03 | 59 | 1010.8 |
| 20260507164549 | 14 | 143 | 12.9 | 0.0 | 0.00 | 0.00 | 0.03 | 59 | 1010.8 |
| 20260507163011 | 14 | 159 | 12.9 | 0.0 | 0.00 | 0.00 | 0.03 | 57 | 1010.9 |
| 20260507161553 | 14 | 138 | 14.5 | 0.0 | 0.00 | 0.00 | 0.03 | 58 | 1011.0 |
| 20260507160049 | 14 | 138 | 12.9 | 0.0 | 0.00 | 0.00 | 0.03 | 60 | 1011.0 |
| 20260507154557 | 14 | 155 | 14.5 | 0.0 | 0.00 | 0.00 | 0.03 | 56 | 1011.0 |
| 20260507153128 | 15 | 160 | 11.3 | 0.0 | 0.00 | 0.00 | 0.03 | 55 | 1011.1 |
| 20260507151630 | 15 | 165 | 11.3 | 0.0 | 0.00 | 0.00 | 0.03 | 53 | 1011.1 |
| 20260507150134 | 15 | 146 | 12.9 | 0.0 | 0.00 | 0.00 | 0.03 | 55 | 1011.1 |
| 20260507144529 | 15 | 150 | 9.7 | 0.0 | 0.00 | 0.00 | 0.03 | 56 | 1011.1 |
| 20260507143133 | 16 | 162 | 12.9 | 0.0 | 0.00 | 0.00 | 0.03 | 48 | 1011.2 |
| 20260507141527 | 16 | 152 | 8.0 | 0.0 | 0.00 | 0.00 | 0.03 | 46 | 1011.2 |
| 20260507140126 | 15 | 137 | 12.9 | 0.0 | 0.00 | 0.00 | 0.03 | 57 | 1011.4 |
| 20260507134622 | 14 | 174 | 12.9 | 0.0 | 0.00 | 0.00 | 0.03 | 56 | 1011.5 |
| 20260507133130 | 14 | 147 | 11.3 | 0.0 | 0.00 | 0.00 | 0.03 | 57 | 1011.5 |
| 20260507131528 | 15 | 140 | 9.7 | 0.0 | 0.00 | 0.00 | 0.03 | 55 | 1011.5 |
| 20260507130058 | 15 | 190 | 9.7 | 0.0 | 0.00 | 0.00 | 0.03 | 53 | 1011.5 |
| 20260507124608 | 15 | 106 | 4.8 | 0.0 | 0.00 | 0.00 | 0.03 | 56 | 1011.5 |
| 20260507123020 | 16 | 128 | 8.0 | 0.0 | 0.00 | 0.00 | 0.03 | 54 | 1011.7 |
| 20260507121539 | 15 | 79 | 8.0 | 0.0 | 0.00 | 0.00 | 0.03 | 56 | 1011.7 |
| 20260507120033 | 16 | 158 | 4.8 | 0.0 | 0.00 | 0.00 | 0.03 | 48 | 1012.0 |
| 20260507114522 | 17 | 140 | 8.0 | 0.0 | 0.00 | 0.00 | 0.03 | 55 | 1012.1 |
| 20260507113033 | 17 | 152 | 8.0 | 0.0 | 0.00 | 0.00 | 0.03 | 56 | 1012.1 |
| 20260507111545 | 15 | 199 | 4.8 | 0.0 | 0.00 | 0.00 | 0.03 | 57 | 1012.1 |
| 20260507110027 | 16 | 179 | 6.4 | 0.0 | 0.00 | 0.00 | 0.03 | 60 | 1012.1 |
| 20260507104634 | 16 | 156 | 4.8 | 0.0 | 0.00 | 0.00 | 0.03 | 58 | 1012.1 |
| 20260507103028 | 15 | 246 | 8.0 | 0.0 | 0.00 | 0.00 | 0.03 | 55 | 1012.3 |
| 20260507101607 | 15 | 178 | 6.4 | 0.0 | 0.00 | 0.00 | 0.03 | 64 | 1012.3 |
| 20260507100022 | 13 | 188 | 6.4 | 0.0 | 0.00 | 0.00 | 0.03 | 66 | 1012.3 |
| 20260507094622 | 13 | 195 | 6.4 | 0.0 | 0.00 | 0.00 | 0.03 | 68 | 1012.2 |
| 20260507093132 | 13 | 166 | 4.8 | 0.0 | 0.00 | 0.00 | 0.03 | 70 | 1012.2 |
| 20260507091622 | 13 | 143 | 6.4 | 0.0 | 0.00 | 0.00 | 0.03 | 70 | 1012.3 |
| 20260507090019 | 12 | 177 | 6.4 | 0.0 | 0.00 | 0.00 | 0.03 | 76 | 1012.3 |
| 20260507084541 | 11 | 165 | 4.8 | 0.0 | 0.00 | 0.00 | 0.03 | 78 | 1012.2 |
| 20260507083141 | 11 | 170 | 6.4 | 0.0 | 0.00 | 0.00 | 0.03 | 73 | 1012.5 |
| 20260507081516 | 11 | 153 | 8.0 | 0.0 | 0.00 | 0.00 | 0.03 | 77 | 1012.5 |
| 20260507080051 | 11 | 163 | 8.0 | 0.0 | 0.00 | 0.00 | 0.03 | 74 | 1012.5 |
| 20260507074524 | 11 | 133 | 4.8 | 0.0 | 0.00 | 0.00 | 0.03 | 81 | 1012.6 |
| 20260507073032 | 10 | 165 | 8.0 | 0.0 | 0.00 | 0.00 | 0.03 | 82 | 1012.6 |
| 20260507071539 | 10 | 158 | 8.0 | 0.0 | 0.00 | 0.00 | 0.03 | 87 | 1012.5 |
| 20260507070141 | 9 | 147 | 4.8 | 0.0 | 0.00 | 0.00 | 0.03 | 91 | 1012.2 |
| 20260507064603 | 8 | 98 | 3.2 | 0.0 | 0.00 | 0.00 | 0.03 | 95 | 1012.0 |
| 20260507063135 | 7 | 69 | 1.6 | 0.0 | 0.00 | 0.00 | 0.03 | 95 | 1011.6 |
| 20260507061540 | 6 | 33 | 0.0 | 0.0 | 0.00 | 0.00 | 0.03 | 95 | 1011.5 |
| 20260507060038 | 5 | 34 | 1.6 | 0.0 | 0.00 | 0.00 | 0.03 | 94 | 1011.5 |
| 20260507054646 | 5 | 4 | 1.6 | 0.0 | 0.00 | 0.00 | 0.03 | 94 | 1011.4 |
| 20260507053142 | 5 | 332 | 1.6 | 0.0 | 0.00 | 0.00 | 0.03 | 94 | 1011.3 |
| 20260507051628 | 4 | 331 | 0.0 | 0.0 | 0.00 | 0.00 | 0.03 | 94 | 1011.2 |
| 20260507050026 | 4 | 331 | 0.0 | 0.0 | 0.00 | 0.00 | 0.03 | 93 | 1011.1 |
| 20260507044603 | 4 | 331 | 1.6 | 0.0 | 0.00 | 0.00 | 0.03 | 93 | 1011.0 |